User: anonymous   Login
Location: Abraham Lincoln Continuation High School
(33.9711°N, 117.3662°W)
Time: 22:12:21
(UTC+00:00)
Language:

BREEZE-M DEB (TANK) - Orbit

View from above orbital plane
View from above orbital plane
View from above satellite
View from above satellite

Ground track
Ground track

The orbit data is extracted from the following two-line orbital elements,

1 33374U 08044B   20336.39332939  .00001877  00000-0  47268-3 0  9994
2 33374  49.4071 115.7931 5440338 124.0546 299.9450  4.88084513215617
Epoch (UTC): 01 December 2020 09:26:23
Eccentricity: 0.5440338
inclination: 49.4071°
perigee height: 315 km
apogee height: 16289 km
right ascension of ascending node: 115.7931°
argument of perigee: 124.0546°
revolutions per day: 4.88084513
mean anomaly at epoch: 299.9450°
orbit number at epoch: 21561

The dashed part of the orbit path shows where the satellite is in the earth's shadow,  

DLR